This demonstration page uses our WeatherBlox Daily Observations layout. Learn more.

Left ArrowRight Arrow

38.83388, -104.82136

Hourly Observations for January 29, 2015

Temp ( °F °C ) Dew Point ( °F °C ) Humidity (%) Winds ( mph kmh ) Pressure ( in mb ) Visibility ( mi km ) Precip ( " mm )
12:56 am 00:56 Mostly Cloudy 36 2 28 -2.5 72 72 NW 15 24 29.97 1015 10 16 N/A
1:56 am 01:56 Mostly Cloudy 35 1.4 26 -3.4 71 71 NW 15 24 30.01 1016 10 16 N/A
2:56 am 02:56 Mostly Cloudy 34 1.2 25 -4 69 69 NW 2 4 30.02 1017 10 16 N/A
3:56 am 03:56 Mostly Cloudy 34 1 24 -4.7 66 66 NNW 8 13 30.07 1018 10 16 N/A
4:56 am 04:56 Cloudy 34 1 24 -4.3 68 68 NW 6 9 30.08 1019 10 16 N/A
5:24 am 05:24 Cloudy with Light Rain 34 1 27 -3 75 75 SE 3 6 30.12 1020 10 16 N/A
5:49 am 05:49 Cloudy 34 1 25 -4 70 70 NNE 2 4 30.12 1020 10 16 N/A
5:56 am 05:56 Cloudy 34 0.9 25 -3.8 71 71 Calm 30.10 1019 10 16 N/A
6:35 am 06:35 Cloudy with Light Rain 34 1 25 -4 70 70 NW 3 6 30.18 1022 10 16 N/A
6:56 am 06:56 Cloudy with Light Rain 33 0.7 25 -4 71 71 N 3 6 30.14 1021 10 16 N/A
7:22 am 07:22 Cloudy 34 1 27 -3 75 75 S 3 6 30.18 1022 10 16 N/A
7:28 am 07:28 Cloudy with Light Showers 32 0 27 -3 80 80 S 3 6 30.21 1023 10 16 N/A
7:53 am 07:53 Mostly Cloudy with Light Rain/Snow 32 0 27 -3 80 80 S 6 9 30.21 1023 10 16 N/A
7:56 am 07:56 Mostly Cloudy with Light Rain/Snow 33 0.4 27 -2.7 80 80 S 6 9 30.18 1022 10 16 N/A
8:38 am 08:38 Mostly Cloudy 34 1 28 -2 81 81 SE 3 6 30.18 1022 10 16 N/A
8:48 am 08:48 Mostly Cloudy 34 1 28 -2 81 81 SSE 3 6 30.21 1023 10 16 N/A
8:56 am 08:56 Mostly Cloudy 34 1.1 28 -2.5 77 77 SE 5 7 30.19 1022 10 16 N/A
9:56 am 09:56 Cloudy 34 1.1 26 -3.5 72 72 SE 2 4 30.23 1024 10 16 N/A
10:56 am 10:56 Cloudy 34 1.1 25 -3.7 71 71 ESE 2 4 30.23 1024 10 16 N/A
11:56 am 11:56 Partly Cloudy 37 2.5 22 -5.5 56 56 SSE 16 26 30.17 1022 10 16 N/A
12:56 pm 12:56 Sunny 39 4.1 21 -6 48 48 SSE 15 24 30.14 1021 10 16 N/A
1:56 pm 13:56 Sunny 39 4 21 -6.3 47 47 SSE 18 30 30.12 1020 10 16 N/A
2:56 pm 14:56 Sunny 38 3.4 19 -7.5 45 45 SSE 21 33 30.13 1020 10 16 N/A
3:56 pm 15:56 Sunny 37 2.9 19 -7.5 47 47 S 14 22 30.12 1020 10 16 N/A
4:56 pm 16:56 Sunny 36 2.4 19 -7.2 50 50 S 14 22 30.12 1020 10 16 N/A
5:56 pm 17:56 Partly Cloudy 35 1.9 20 -6.5 54 54 SSE 13 20 30.14 1021 10 16 N/A
6:56 pm 18:56 Mostly Cloudy 34 1.2 21 -5.9 60 60 SSE 15 24 30.15 1021 10 16 N/A
7:56 pm 19:56 Mostly Cloudy 34 1 21 -6.3 59 59 S 12 19 30.15 1021 10 16 N/A
8:56 pm 20:56 Mostly Cloudy 34 0.9 20 -6.5 58 58 S 16 26 30.13 1020 10 16 N/A
9:56 pm 21:56 Mostly Cloudy 33 0.7 21 -6.2 60 60 S 16 26 30.12 1020 10 16 N/A
10:56 pm 22:56 Mostly Cloudy 33 0.7 21 -6 61 61 S 15 24 30.11 1020 10 16 N/A
11:56 pm 23:56 Cloudy 33 0.7 21 -5.9 62 62 S 15 24 30.06 1018 10 16 N/A

Powered by AerisWeather